Location: Étavigny
(49.1201°N, 2.9800°E)
Time: 11:36:38
(UTC+00:00)

Cosmos 2322 Rocket - Pass Details

Date: 28 January 2023
Orbit: 831 x 851 km, 71.0° (Epoch: 23 March)

Event Time Altitude Azimuth Distance (km) Brightness Sun altitude
Rises 18:03:00 0° 157° (SSE) 3,364 5.2 -13.9°
Reaches altitude 10° 18:06:12 10° 139° (SE) 2,435 4.3 -14.4°
Enters shadow 18:08:51 17° 111° (ESE) 1,998 3.7 -14.9°
